{"data":{"norad_id":64050,"epoch":"2026-05-25T04:40:31.350720Z","epoch_age_seconds":57553,"freshness":"FRESH","line1":"1 64050U 25103C   26145.19480730  .00003122  00000+0  14902-3 0  9992","line2":"2 64050  97.3754 217.3536 0001694 220.5083 139.6026 15.19777901 56576","mean_motion":15.19777901,"eccentricity":0.0001694,"inclination_deg":97.3754,"raan_deg":217.3536,"arg_perigee_deg":220.5083,"mean_anomaly_deg":139.6026,"bstar":0.00014902,"rev_number":5657,"period_min":94.750686863685,"perigee_km":505.34501692812,"apogee_km":507.67753576415,"semimajor_km":6884.6482763461,"source":"CELESTRAK","updated_at":"2026-05-25T13:38:04.196304Z"}}